Location: Arboyeti
(42.1122°N, 44.6017°E)
Time: 20:47:45
(UTC+00:00)

IRS-1D - Pass Details

Date: 19 April 2021
Orbit: 740 x 816 km, 98.6° (Epoch: 18 May)

Event Time Altitude Azimuth Distance (km) Brightness Sun altitude
Rises 23:05:39 0° 17° (NNE) 3,264 7.8 -29.2°
Reaches altitude 10° 23:07:59 10° 21° (NNE) 2,344 6.9 -28.9°
Maximum altitude 23:13:06 59° 101° (E) 914 3.9 -28.4°
Enters shadow 23:13:13 59° 108° (ESE) 916 3.8 -28.3°
